GFSNGP_sfc_thetae_111.txt.gz
Theta_e
291 293 293 291 291 291 288 290 286 289 291 295 298 298 299 299 302 303 303 304 303 303 303 303 305 305 305 305 305 305 305 304 304 305 307 307 308 309 311 312 313 315 317 317
288 292 292 290 293 293 293 293 292 292 292 298 299 300 299 299 301 302 300 301 301 302 302 302 302 303 304 304 303 305 304 303 305 306 307 306 306 306 306 308 310 313 316 315
282 290 289 283 290 292 294 296 294 288 293 297 297 297 296 297 298 298 299 299 299 299 299 299 299 301 300 302 303 303 302 304 305 304 304 303 303 303 302 302 304 308 313 313
283 285 277 289 297 298 295 296 298 298 298 300 300 298 298 298 296 297 298 299 298 297 298 298 299 299 300 301 301 301 301 302 303 303 303 303 302 301 301 302 303 304 306 312
280 279 286 290 296 295 293 292 298 297 297 298 298 296 295 300 299 296 297 297 297 299 299 298 298 299 299 300 300 301 301 301 302 303 302 302 301 300 300 301 301 304 306 309
282 279 278 290 299 300 298 285 298 298 296 295 295 289 293 297 298 298 297 297 297 298 299 297 297 298 297 297 297 297 298 301 303 303 303 302 302 301 301 301 301 303 303 306
285 283 285 297 300 301 287 287 297 297 295 295 292 293 295 298 297 297 297 297 298 298 295 296 297 297 295 295 294 296 299 299 300 302 303 302 302 301 301 300 301 302 302 305
286 282 280 300 299 292 296 298 298 297 296 295 294 295 296 297 296 296 296 297 296 296 296 296 297 296 295 294 295 296 294 296 298 300 301 302 301 300 300 301 302 301 300 302
290 288 298 300 297 300 299 298 297 296 299 295 294 294 296 296 296 296 295 296 297 296 295 296 295 295 292 292 293 293 294 293 296 297 299 299 298 298 298 301 301 300 300 300
292 295 296 298 300 300 301 300 299 297 295 296 294 295 296 296 295 294 295 296 296 295 294 292 292 292 292 292 292 291 291 291 292 293 294 295 297 298 298 299 299 299 299 299
290 295 297 298 299 300 300 300 299 298 297 296 296 296 295 294 294 295 295 295 294 292 291 290 290 290 290 290 290 289 289 290 290 291 292 294 295 296 298 300 300 300 300 300
287 295 295 296 299 301 299 298 297 297 296 297 296 295 294 294 294 294 293 292 292 290 289 289 288 287 288 289 289 289 288 289 289 290 291 292 292 293 295 295 295 294 293 296
294 298 297 297 300 300 301 298 299 297 297 295 297 295 295 293 293 294 291 291 289 288 287 287 286 286 287 289 289 288 288 288 289 290 290 290 290 291 290 294 294 293 293 293
300 299 295 299 297 301 299 299 299 297 297 297 297 296 293 292 292 290 290 289 288 286 285 285 285 285 288 289 288 287 286 288 288 288 289 290 291 291 291 291 291 294 293 293
298 299 299 299 299 298 298 297 295 294 296 296 297 293 292 290 289 289 289 288 286 285 284 284 284 285 287 286 285 285 285 286 287 287 288 289 290 290 291 291 292 293 295 293
299 299 297 295 296 296 296 295 293 294 295 295 293 291 291 290 289 289 288 286 283 282 283 283 284 284 285 284 285 285 287 287 287 287 287 289 289 289 290 291 291 293 293 293
294 292 293 293 294 295 295 295 295 294 295 294 291 291 290 289 288 286 286 285 284 283 283 283 282 283 284 285 286 287 288 289 288 289 289 289 289 289 290 290 290 291 292 294
295 295 294 295 294 294 294 296 295 295 296 293 292 291 289 287 285 285 285 284 283 282 282 282 282 284 285 286 286 288 290 292 293 293 294 292 292 292 291 290 290 291 293 294
296 296 296 297 296 295 295 294 295 297 294 293 291 289 288 287 286 285 284 282 281 279 280 281 283 284 284 285 287 289 297 304 300 300 302 298 298 298 296 292 292 293 294 294
296 296 296 297 297 296 295 296 296 295 294 292 291 289 287 286 286 285 283 280 281 280 281 281 283 282 282 285 287 294 300 301 303 304 305 303 301 298 295 292 294 294 295 295
295 296 296 296 295 297 297 296 295 293 293 292 289 287 286 286 285 284 280 279 280 281 281 282 282 281 282 284 289 293 296 299 299 300 301 302 302 301 300 297 297 296 297 297
295 296 295 295 295 295 295 295 293 293 292 292 289 289 287 285 284 283 282 279 280 280 280 280 280 280 282 285 288 290 292 293 295 297 297 299 299 301 301 301 299 299 299 299
295 298 296 296 295 295 295 294 293 292 291 291 288 288 286 285 284 281 278 281 280 280 279 280 280 280 282 285 286 288 288 289 290 292 293 294 296 297 298 299 302 300 300 301
295 298 296 296 296 294 292 293 292 292 291 291 289 289 287 285 284 285 283 281 280 279 279 279 279 280 282 283 284 285 286 286 287 288 289 289 291 292 293 294 296 301 303 302
295 297 295 294 292 291 292 292 291 290 290 289 288 289 289 288 284 284 284 282 280 279 279 279 279 280 281 281 282 282 283 284 285 286 286 287 287 288 289 290 290 292 295 299
294 293 293 294 293 292 292 291 290 289 289 287 288 288 289 287 286 285 283 282 281 279 279 279 278 278 279 280 280 281 281 282 283 284 284 285 285 286 286 286 287 288 289 291
293 293 291 291 292 293 292 290 290 289 288 288 286 287 288 286 285 284 283 282 281 280 279 279 278 278 278 278 279 280 280 281 281 282 283 284 284 284 284 285 285 285 286 287

GFSNGP_sfc_thetae_114.txt.gz
Theta_e
288 290 291 290 290 290 287 287 284 287 288 292 295 295 297 299 300 299 298 299 299 298 298 299 299 300 300 301 303 302 302 301 301 302 303 304 304 305 306 307 309 309 309 313
287 291 291 288 290 290 291 291 290 290 290 296 298 297 297 296 297 297 298 298 299 299 299 298 299 299 300 300 301 301 300 300 302 303 303 303 303 303 303 303 304 306 306 308
281 288 287 282 287 289 291 294 292 287 290 296 296 296 293 294 296 295 297 297 298 298 298 297 297 299 298 299 300 300 300 302 302 302 302 302 303 303 301 300 301 300 302 305
282 283 276 286 295 298 295 296 296 296 298 298 297 299 299 295 292 295 296 296 296 296 295 295 296 297 297 298 299 299 299 300 301 301 301 302 301 302 301 299 298 298 299 301
279 277 284 288 295 293 290 290 297 296 297 297 296 295 294 297 296 294 294 294 294 294 295 296 295 296 296 296 297 297 297 297 298 299 298 298 299 301 301 298 297 297 299 300
284 279 276 288 298 300 297 285 299 298 294 293 293 286 290 296 296 295 295 294 294 295 294 294 296 296 295 295 296 295 296 296 297 297 297 299 300 302 302 298 299 299 300 301
285 282 285 295 298 301 282 285 298 298 294 292 290 292 294 295 294 294 294 294 294 293 293 293 295 295 295 295 294 295 297 296 295 297 295 295 296 298 302 301 300 299 298 299
285 283 281 298 297 290 292 295 297 295 294 293 292 293 294 294 294 294 293 293 293 292 294 296 296 296 294 293 294 294 294 293 293 293 295 295 296 298 300 300 299 298 299 300
288 288 297 299 296 297 297 295 296 293 294 292 292 292 293 293 293 292 292 293 295 294 294 294 295 294 291 292 293 292 291 291 291 292 293 293 293 295 297 298 298 297 297 298
290 294 296 297 298 297 297 296 299 296 293 293 292 293 293 293 291 293 293 293 293 292 291 292 292 291 292 291 291 289 289 289 290 290 290 291 293 293 293 294 294 295 297 299
289 293 294 297 298 297 298 300 297 296 295 294 293 292 293 292 292 292 292 292 292 290 291 290 290 289 289 289 289 287 288 288 288 289 289 290 291 292 294 296 297 298 299 300
284 293 292 293 297 299 297 298 298 295 294 294 294 293 293 291 291 291 291 290 289 290 289 288 288 287 288 288 288 286 286 286 287 288 289 290 290 291 293 293 293 292 293 297
292 297 297 298 298 300 299 296 296 294 294 293 294 293 291 290 290 292 290 289 288 288 287 287 286 286 287 288 287 285 285 285 286 287 288 288 289 289 288 292 293 293 292 292
297 298 293 295 293 297 296 296 296 295 294 295 294 292 292 290 290 289 288 288 289 287 286 285 285 285 287 286 285 285 285 286 285 286 286 287 288 289 290 289 289 291 292 292
299 299 296 296 297 295 295 294 293 292 293 293 294 292 290 289 288 288 288 288 287 286 285 284 284 284 285 284 284 284 285 285 286 287 287 288 288 289 289 290 290 291 293 292
298 295 295 293 294 294 293 293 291 291 293 293 292 290 290 289 288 288 287 287 284 282 283 283 283 283 283 283 284 285 286 287 288 288 288 288 288 288 288 289 289 290 291 292
293 289 290 291 292 292 292 293 293 293 294 291 290 290 289 288 287 286 286 286 284 283 283 282 281 282 283 285 285 285 286 288 288 289 290 290 289 288 289 289 289 290 291 294
293 293 293 292 292 292 292 294 293 294 292 292 291 290 288 286 285 285 285 284 283 282 281 281 281 283 283 284 284 286 288 291 299 295 295 294 292 292 290 290 290 290 291 292
294 296 295 295 294 292 292 293 293 293 293 292 290 287 288 286 286 285 284 282 280 278 279 281 283 282 282 283 285 287 292 298 300 302 303 297 298 296 295 291 291 291 292 293
294 294 295 294 295 294 293 295 293 292 292 291 288 288 286 286 286 284 282 280 280 279 281 280 281 281 281 283 286 289 293 295 298 298 300 301 301 296 294 291 293 293 293 294
293 294 293 294 294 295 294 292 292 291 291 289 288 287 286 286 285 284 281 278 280 281 281 281 280 280 281 283 286 289 290 291 293 294 295 297 298 301 297 296 296 295 295 295
293 295 293 294 294 293 292 292 291 291 290 288 288 287 286 284 284 282 283 280 281 280 280 280 280 280 281 283 285 287 288 289 289 290 291 292 294 295 299 299 298 298 298 297
294 296 294 294 293 292 292 292 290 290 289 287 286 286 285 284 283 280 279 282 281 280 279 279 279 279 281 283 284 284 285 286 286 287 288 289 290 291 292 294 300 300 299 300
294 294 293 293 292 291 289 290 289 289 289 288 287 287 285 283 283 283 283 282 281 280 279 279 279 279 280 281 282 282 283 283 284 285 286 286 287 288 289 290 291 294 299 301
293 292 292 290 289 288 289 289 288 287 287 286 286 287 285 285 283 283 282 282 281 280 279 279 279 279 280 280 280 280 281 282 282 283 284 285 285 285 286 287 287 288 291 293
289 288 289 289 289 289 288 287 285 285 286 284 285 286 285 285 284 283 282 282 281 280 279 279 278 278 279 279 279 279 280 281 281 282 282 283 284 284 284 285 285 286 287 288
288 289 288 289 289 289 288 287 285 284 285 285 284 285 284 284 283 283 282 281 280 280 280 279 278 278 278 278 279 279 280 280 280 281 281 282 282 283 283 284 284 285 286 286

GFSNGP_sfc_thetae_117.txt.gz
Theta_e
287 289 290 288 288 288 285 285 282 285 286 290 291 293 295 295 296 296 297 298 298 297 296 297 297 297 299 298 299 300 300 300 299 300 301 301 302 303 304 305 306 307 307 308
285 290 289 287 289 289 288 289 288 288 287 293 294 293 293 293 294 294 295 296 297 298 298 297 297 297 298 298 299 299 298 299 300 300 301 301 301 301 301 302 303 303 304 306
280 287 286 281 286 287 288 290 289 286 290 294 295 295 293 292 294 296 295 296 295 296 295 295 295 297 296 297 297 297 297 299 300 301 301 300 301 301 300 300 300 300 301 302
279 281 275 285 292 295 292 295 295 294 294 295 294 296 295 298 293 294 294 294 294 294 293 293 294 294 294 296 297 298 297 298 299 299 298 299 299 299 299 300 300 301 301 301
278 276 283 287 294 292 288 289 296 294 296 297 295 293 293 296 294 293 293 294 293 293 293 292 292 294 296 296 297 297 297 297 297 297 296 296 296 295 296 296 299 300 301 300
284 279 277 285 296 299 295 284 296 296 295 294 291 286 289 294 295 294 295 294 293 293 293 292 294 294 294 295 295 295 296 297 296 295 296 295 294 297 296 296 299 302 301 300
284 282 284 292 297 300 282 282 294 296 295 293 289 291 292 293 293 294 293 293 293 292 291 292 294 294 293 294 294 296 295 295 295 294 293 293 293 294 293 294 295 296 300 301
285 283 280 298 296 289 290 293 295 295 294 292 292 292 292 293 293 293 292 292 292 291 293 294 294 293 292 292 293 293 293 293 292 292 292 293 292 292 293 294 296 297 299 299
283 283 293 299 297 298 297 295 294 294 294 293 291 292 292 292 292 292 291 291 292 292 292 292 292 292 291 291 291 291 290 289 289 290 291 291 290 290 290 291 291 296 298 298
289 290 293 297 299 299 297 297 299 296 293 292 291 292 291 291 291 290 291 291 292 291 290 289 291 291 290 291 290 289 288 287 288 288 288 289 290 291 290 291 291 292 295 296
286 290 293 295 297 297 298 298 297 294 293 293 292 291 291 291 290 290 291 291 291 289 289 289 290 289 289 289 289 287 287 287 286 287 287 288 289 290 290 292 293 293 294 295
281 289 291 292 297 298 296 295 294 293 292 292 292 291 291 290 289 290 290 290 289 289 288 289 288 288 288 288 288 286 284 285 286 286 287 288 288 289 291 291 292 292 291 292
290 294 294 296 297 298 295 294 294 293 292 292 292 292 289 289 289 291 289 288 288 287 287 287 286 286 287 287 287 285 284 284 285 285 285 286 286 287 287 290 292 291 291 291
296 294 293 294 291 296 295 294 295 294 293 293 293 291 290 289 289 288 287 288 288 287 286 286 285 285 286 286 284 283 284 285 285 285 286 286 286 287 288 288 288 290 291 291
297 295 296 294 296 295 295 293 292 290 291 292 292 290 289 287 287 287 287 288 287 286 285 284 284 284 284 284 283 283 284 285 286 287 287 287 287 287 287 288 288 290 291 291
295 295 295 294 293 293 292 291 290 290 291 291 290 289 289 288 287 286 287 286 284 282 283 283 282 282 282 283 283 284 284 286 287 287 288 289 288 287 287 287 288 289 290 291
292 288 289 289 291 291 290 291 291 291 291 290 289 289 287 286 286 286 285 285 284 283 283 281 280 282 283 283 283 283 284 286 287 289 293 291 291 289 289 288 288 289 290 292
292 291 291 290 291 290 290 292 291 290 289 290 289 287 286 285 285 284 285 284 282 281 281 281 281 283 282 282 283 284 286 288 293 298 301 299 295 293 292 290 289 289 290 291
293 293 292 293 292 291 291 290 289 290 290 289 287 286 287 286 285 284 284 282 280 278 279 281 283 281 281 282 284 285 289 292 293 296 297 295 299 296 293 291 290 290 291 292
292 292 293 293 294 291 290 291 291 290 290 288 287 286 285 285 284 283 282 281 280 280 281 280 281 280 280 282 285 286 289 290 291 292 293 294 296 295 294 290 292 292 292 293
291 292 292 293 292 292 291 291 290 289 288 288 286 285 284 284 284 283 280 279 281 281 281 281 280 279 280 281 284 285 286 287 288 289 290 291 292 295 297 296 295 295 294 295
294 292 292 292 291 290 291 290 289 289 288 287 286 285 283 282 282 281 282 280 281 280 280 279 279 279 280 282 283 284 284 285 286 287 288 288 289 290 292 296 298 297 297 296
294 292 293 292 291 290 290 289 288 288 287 286 285 284 282 282 282 279 278 281 281 280 279 279 279 279 280 281 282 282 283 283 284 285 285 286 287 288 289 290 292 295 299 298
292 292 291 292 291 289 287 288 287 287 287 286 285 285 283 281 282 282 282 281 281 280 279 279 279 279 279 280 280 280 281 281 282 283 284 284 285 286 286 287 288 290 293 296
290 290 290 289 288 287 287 287 286 285 285 284 285 285 284 283 282 282 281 281 280 280 279 280 279 279 279 279 279 280 280 280 281 281 282 283 283 284 284 285 286 286 288 289
288 287 288 289 287 287 286 285 283 284 283 283 283 284 283 283 283 282 281 280 280 280 279 279 279 279 279 278 279 279 280 280 280 280 281 282 282 283 283 284 285 285 286 286
287 288 287 287 287 287 286 285 283 283 283 282 282 283 282 281 281 281 280 280 279 279 279 279 279 279 278 278 279 279 279 280 280 280 280 281 281 282 282 283 284 285 285 285

GFSNGP_sfc_thetae_123.txt.gz
Theta_e
291 292 292 291 291 292 291 292 288 291 290 295 298 300 301 303 303 301 302 302 303 304 305 306 306 306 306 306 306 306 305 305 306 307 308 308 308 308 309 309 309 309 309 310
290 291 291 290 292 292 292 292 292 292 292 299 301 302 300 301 300 300 301 302 303 304 304 304 305 305 305 305 305 305 304 304 305 306 306 306 306 306 307 307 308 308 308 308
287 290 289 286 290 292 292 294 293 290 295 300 300 300 301 301 301 302 302 302 303 303 304 305 305 304 303 304 304 304 304 304 304 304 303 303 304 305 305 305 306 306 306 306
287 288 280 290 295 295 293 295 296 296 298 301 302 302 303 303 302 302 303 303 303 304 304 305 305 304 304 304 303 303 302 301 302 301 301 303 303 303 303 302 301 302 302 303
286 285 288 290 295 295 294 294 300 300 301 301 302 301 302 303 303 303 303 304 304 305 304 304 304 304 303 302 302 301 300 300 300 300 300 301 299 299 299 299 299 298 299 299
285 282 281 291 298 301 300 289 300 301 300 300 300 295 299 303 303 303 304 304 303 303 303 303 303 303 301 300 300 298 298 298 299 299 297 296 294 294 295 295 294 294 294 296
286 285 289 296 298 302 287 291 300 301 302 301 299 301 303 304 303 303 303 303 303 302 301 301 302 300 298 298 297 298 298 297 297 295 293 293 292 293 293 292 292 292 293 294
288 284 282 299 298 293 298 301 301 302 302 301 301 302 302 302 302 302 301 301 301 300 299 300 300 298 296 295 297 296 296 295 293 291 292 292 291 291 291 291 290 290 290 292
292 292 298 302 301 303 304 301 302 302 303 302 300 300 300 300 300 300 300 300 300 298 297 298 297 296 294 295 294 294 293 289 290 290 290 290 290 289 289 289 288 288 289 290
293 295 297 300 302 304 303 302 304 304 303 301 299 299 299 299 299 298 299 298 297 296 294 294 295 295 293 293 293 291 288 287 288 288 288 289 290 289 289 288 288 288 289 289
293 295 296 297 299 301 302 303 301 300 299 299 298 298 298 297 298 298 297 296 295 294 293 292 292 291 292 291 290 287 286 286 286 286 286 287 288 288 288 290 290 289 290 291
290 294 295 297 300 302 301 299 299 298 298 298 298 297 298 297 298 296 294 294 293 292 291 290 290 289 289 288 288 285 284 284 284 285 285 286 286 286 289 289 289 289 289 290
296 299 299 300 300 301 299 298 298 298 298 297 298 297 297 295 295 293 293 292 291 290 290 289 288 287 287 287 286 284 283 283 283 284 285 285 286 286 286 289 291 290 289 289
299 301 297 298 297 300 299 299 298 298 298 296 296 295 294 293 292 291 291 290 290 289 288 288 285 284 285 285 284 283 283 284 284 285 285 285 286 287 288 287 287 289 290 290
300 302 299 300 299 298 298 297 295 293 293 293 294 293 292 290 289 289 289 288 288 287 287 284 283 283 284 284 283 283 283 283 284 285 286 287 288 288 289 289 289 289 290 291
298 299 298 296 296 296 296 293 291 291 292 293 291 291 290 290 288 288 287 287 284 283 283 282 282 282 283 283 283 282 283 284 285 286 287 289 292 295 295 292 290 289 289 290
297 294 294 294 294 294 292 292 291 292 292 290 290 290 289 287 286 285 285 286 284 283 283 282 280 282 284 283 282 282 283 285 285 288 291 292 293 293 296 293 292 290 289 291
298 297 297 296 294 292 291 291 292 292 290 290 290 289 287 285 284 284 284 284 283 282 282 282 281 283 282 282 282 283 284 286 288 289 290 291 291 293 296 293 292 290 291 291
298 297 296 295 293 292 291 291 291 292 291 290 289 287 286 285 285 284 284 283 280 279 279 281 283 281 281 282 283 284 285 286 287 288 289 288 290 291 293 295 293 292 292 292
297 297 295 294 294 292 291 291 291 290 290 289 288 286 284 284 284 283 283 281 280 280 281 281 281 281 281 282 283 284 284 285 285 286 287 287 288 288 290 290 293 294 293 293
296 296 294 293 293 292 291 291 290 289 289 289 287 285 284 284 284 283 281 280 281 282 281 282 281 280 281 282 282 283 283 283 283 284 285 285 286 286 288 289 290 293 295 294
296 295 294 293 292 291 291 291 290 289 288 287 286 285 284 283 283 282 283 281 282 282 281 281 281 281 281 281 282 282 282 282 282 283 283 284 284 284 285 287 287 289 292 296
296 295 294 293 292 291 291 290 289 289 287 286 285 284 283 283 283 280 279 283 283 282 281 281 281 280 281 281 282 281 281 281 281 281 282 282 283 283 284 284 286 287 288 290
296 295 293 293 293 291 289 289 289 288 287 287 285 285 284 282 283 284 284 283 282 282 282 281 281 280 281 281 281 280 281 280 280 281 281 281 282 282 283 283 284 285 286 287
296 295 294 293 291 290 290 289 289 288 287 287 286 286 285 285 282 284 283 283 282 282 282 282 281 281 281 280 280 280 280 280 280 280 280 280 281 282 282 283 283 284 285 286
295 294 294 293 292 291 290 289 287 287 286 286 286 285 285 285 285 285 284 283 283 282 282 282 282 282 281 280 280 280 280 281 280 280 280 280 280 281 281 282 282 283 284 285
294 292 293 292 293 292 290 288 288 286 286 286 285 285 285 285 285 284 283 283 283 283 283 283 282 281 282 281 281 280 280 280 281 280 280 280 280 280 280 281 282 282 284 285